EHI
6 4 3 1 0 0 0 0 0 0 0 0 0 0 0 0 0 0 1 2 3 3 3 4 4 4 4 3 3 3 3 3 3 3 3 3 3 3 3 3 3 3 3 3 3 3 3 3 3
3 3 3 2 0 0 0 0 0 0 0 0 0 0 0 0 1 1 0 1 3 3 3 4 5 5 4 3 3 3 3 3 3 3 3 3 3 3 3 3 3 3 3 3 3 3 3 3 3
2 3 3 1 0 0 0 0 1 1 1 0 0 0 0 1 2 2 1 1 3 3 3 4 5 5 4 3 3 3 3 3 3 3 3 3 3 3 3 3 3 3 3 3 3 3 3 3 3
2 3 2 1 0 0 0 1 2 2 2 1 0 0 0 1 2 2 1 2 3 3 3 5 6 5 3 3 3 3 3 3 3 3 3 3 3 3 3 3 3 3 3 3 3 3 3 3 3
1 1 1 1 0 0 0 1 1 2 2 1 0 0 0 1 2 2 1 2 3 3 4 5 6 5 3 3 3 3 3 3 3 3 3 4 3 3 3 3 3 3 3 3 3 3 3 3 3
1 0 0 0 0 0 0 0 0 1 2 1 0 0 0 1 3 3 2 2 3 3 3 5 6 4 3 3 3 3 3 3 3 4 4 5 4 3 3 3 3 3 3 3 3 3 3 3 3
1 0 0 0 0 0 0 0 0 1 2 2 1 0 0 2 4 5 2 1 1 3 3 4 4 4 3 3 3 3 3 3 4 5 6 6 5 4 3 3 3 3 3 3 3 3 3 3 3
1 0 0 0 0 0 0 0 0 0 1 1 1 0 1 3 6 6 4 1 1 2 3 3 3 3 3 3 3 3 3 3 4 6 7 6 6 5 4 3 3 3 3 3 4 4 4 4 4
0 0 0 0 0 0 0 0 0 0 0 0 0 1 3 7 10 10 7 3 1 1 1 3 3 3 3 3 3 3 3 3 4 5 6 5 4 3 3 3 4 4 4 4 5 6 5 4 4
0 0 0 0 0 0 0 0 0 0 0 0 1 2 6 11 14 14 10 5 2 1 1 2 3 3 3 2 2 2 3 3 3 4 4 2 1 1 2 3 4 5 5 4 5 6 5 4 3
0 0 0 0 0 0 0 0 0 0 0 0 2 4 7 10 14 15 11 6 4 2 1 1 3 3 1 1 1 1 2 3 3 3 2 1 1 1 1 2 4 4 3 3 3 3 3 2 1
0 0 0 0 0 0 0 0 0 0 0 0 2 4 5 7 10 12 10 7 5 4 2 2 3 3 2 0 0 1 2 3 3 3 2 2 3 2 1 1 1 1 1 1 1 1 1 1 0
0 0 0 0 1 1 1 1 2 1 1 1 1 3 4 6 8 9 9 8 8 8 6 4 4 5 3 1 1 2 3 3 3 3 3 3 3 3 2 1 1 0 0 0 0 0 0 0 0
0 0 0 0 1 2 3 3 3 4 4 3 3 4 7 10 11 9 9 10 11 11 9 6 5 6 4 3 4 4 4 4 4 4 4 4 4 3 3 3 2 1 0 0 0 0 0 0 0
0 0 0 0 1 3 4 5 5 6 7 7 7 9 12 15 16 13 10 10 11 12 11 8 6 6 5 4 6 6 5 5 4 4 5 5 5 4 3 3 3 2 1 1 1 0 0 0 0
0 0 0 0 0 2 4 5 6 8 11 11 12 14 16 18 18 15 12 10 9 11 11 8 7 8 7 5 5 5 4 4 4 4 5 6 6 5 4 4 3 2 1 2 2 1 1 0 0
0 0 0 0 1 2 3 5 7 10 14 15 15 16 18 20 21 18 15 13 12 13 12 9 8 10 8 6 5 4 4 4 4 4 6 7 6 6 6 5 4 3 1 2 2 2 2 1 1
0 0 0 0 1 3 3 4 7 12 16 17 16 15 17 21 23 21 19 18 17 16 13 10 10 11 10 9 8 6 5 5 5 5 6 7 7 6 7 6 6 5 3 2 3 3 3 2 2
0 0 0 1 2 3 4 5 7 12 16 17 16 15 15 19 23 23 23 26 27 23 17 13 14 14 12 12 11 8 6 5 4 5 6 7 7 8 8 6 6 5 5 4 4 4 3 2 1
0 0 0 1 2 4 5 6 7 10 14 16 16 16 15 17 22 24 28 35 38 34 26 21 21 21 19 17 14 11 9 7 5 5 6 7 9 11 10 6 5 5 5 5 5 4 3 1 1
0 0 0 1 2 4 5 6 6 8 11 14 16 17 15 17 22 27 32 39 44 45 38 31 29 30 27 24 22 19 16 13 9 7 7 8 11 12 10 8 6 4 4 4 4 4 3 2 1
0 0 0 1 2 3 3 4 5 7 10 13 16 16 16 17 21 27 33 38 46 51 47 38 33 33 32 31 30 28 22 17 12 10 8 8 9 11 9 8 6 4 3 3 3 3 3 2 1
0 0 0 0 1 1 1 2 5 7 9 12 15 17 18 19 20 25 32 38 45 52 51 44 37 34 34 34 35 32 25 17 13 11 9 7 6 7 7 6 5 4 3 3 3 3 3 2 1
0 0 0 0 0 0 0 1 3 5 7 10 14 18 22 22 22 26 31 38 46 52 54 52 48 43 39 37 36 34 27 19 14 13 10 7 4 4 6 5 4 3 3 3 3 3 3 2 1
0 0 0 0 0 0 0 0 1 3 5 9 14 21 25 26 27 31 35 40 48 52 56 58 58 55 48 42 38 35 30 24 18 15 13 9 6 5 5 6 5 4 3 3 3 3 3 2 1
0 0 0 0 0 0 0 1 2 4 6 11 17 24 29 29 31 36 41 46 49 51 54 58 61 59 52 44 40 36 33 29 24 21 17 12 9 6 5 5 5 4 3 4 3 3 3 2 1
0 0 0 0 0 0 0 2 4 8 12 16 21 27 31 33 35 39 44 47 48 46 49 56 59 55 48 42 40 38 35 32 28 24 20 14 9 6 5 5 5 4 5 5 4 3 3 3 2
0 0 0 0 0 0 0 1 5 11 16 20 25 29 32 35 39 42 45 46 44 43 46 52 53 48 41 39 38 37 35 32 28 23 19 14 9 7 6 5 4 5 6 6 5 3 3 3 3
0 0 0 0 0 0 0 1 5 12 17 20 25 29 31 34 40 44 45 45 44 43 44 47 46 42 38 37 37 36 33 30 26 21 17 13 10 9 8 5 4 5 6 7 6 4 3 3 3
0 0 0 0 0 0 0 0 4 12 16 19 24 28 29 32 39 45 45 45 45 44 44 44 42 40 39 37 36 36 33 28 24 21 17 13 12 11 9 6 5 5 6 8 8 6 4 3 3
Wind_Speed
5 4 2 1 5 6 7 6 9 9 8 9 12 11 11 9 7 9 4 10 11 8 6 9 12 13 13 13 13 14 14 15 15 14 14 14 15 15 15 15 15 15 15 15 15 15 15 14 14
3 3 1 4 7 6 6 8 13 14 14 14 14 14 12 10 10 11 7 10 11 9 6 8 12 13 13 13 13 13 13 14 14 14 14 14 14 14 14 14 14 14 14 14 14 14 14 14 13
3 2 3 4 5 7 7 10 14 15 12 10 8 8 7 8 9 7 8 12 10 7 6 8 13 13 13 12 12 12 12 13 13 12 13 13 13 13 14 14 13 13 14 14 13 13 13 12 12
1 2 4 5 6 6 11 12 15 15 11 10 10 8 6 7 7 11 14 14 11 7 5 8 13 13 12 12 11 11 12 12 12 12 12 12 13 13 14 13 13 13 13 13 12 12 12 11 10
2 4 5 4 6 8 11 14 14 12 8 10 12 10 6 6 16 17 15 14 12 7 5 7 12 12 12 11 11 11 11 11 11 11 11 11 11 12 12 12 12 11 11 11 11 11 10 9 9
3 4 4 4 8 9 10 13 14 16 16 14 13 11 5 10 16 15 14 12 11 10 6 6 12 12 11 11 11 10 10 10 10 10 10 10 10 10 10 11 10 10 10 10 9 9 8 7 7
3 4 4 6 9 9 10 11 13 15 14 11 11 9 6 9 13 14 13 12 10 9 7 5 5 7 10 10 10 10 9 9 9 8 8 9 9 9 9 9 9 9 9 8 8 7 7 6 5
5 5 3 4 9 7 8 8 11 15 11 13 9 9 8 10 13 14 12 10 9 7 6 5 4 4 4 5 9 9 9 8 8 7 7 7 7 7 7 6 7 8 7 7 6 6 5 4 3
4 6 3 5 8 7 9 11 8 9 11 7 5 8 12 15 16 14 11 8 7 7 5 5 5 4 4 4 7 7 8 7 6 5 6 4 2 2 2 4 6 6 6 6 5 4 3 2 2
5 5 6 5 8 9 11 13 9 8 10 10 11 11 13 14 15 14 12 10 9 9 7 6 6 5 4 4 3 2 3 3 2 2 2 1 1 1 3 4 5 5 5 4 4 3 3 2 0
4 5 4 5 7 10 10 9 8 11 9 14 18 16 13 14 12 12 11 10 10 9 9 7 6 6 5 3 3 1 1 2 2 3 3 2 2 1 1 1 2 2 3 2 2 2 1 1 1
4 4 5 5 6 9 9 8 7 8 11 14 15 15 12 12 11 11 10 9 8 8 8 7 6 5 5 4 3 3 2 2 2 3 3 3 2 2 2 2 2 2 1 2 2 1 2 2 2
5 4 5 7 8 9 11 10 9 8 13 14 14 13 12 11 9 8 9 9 8 7 7 7 7 6 4 3 2 3 3 3 3 2 3 3 3 3 2 2 2 3 2 2 2 2 2 2 3
3 6 6 6 7 8 13 9 8 10 14 14 14 12 11 11 10 8 9 8 8 8 7 6 7 6 5 3 2 2 2 2 2 2 3 3 3 2 2 2 2 2 3 3 3 3 3 2 2
4 7 5 3 5 6 11 6 8 14 14 14 13 12 12 11 11 11 11 9 9 8 7 7 6 5 5 4 3 2 1 1 2 1 2 3 3 3 2 2 2 2 2 3 2 2 1 2 2
4 5 2 2 3 4 9 6 7 11 13 12 12 12 11 10 11 11 11 9 9 8 8 6 6 5 4 3 2 2 1 1 1 1 1 2 2 2 2 1 2 2 1 1 1 1 1 1 1
4 2 1 3 2 4 6 5 8 9 12 11 11 11 11 10 10 10 11 10 9 9 8 6 5 6 4 4 2 2 1 1 1 1 1 1 1 2 1 1 1 1 1 1 1 1 1 1 2
2 1 2 4 3 4 5 5 9 10 11 11 10 10 10 11 11 11 10 10 9 9 8 7 6 5 4 3 2 1 0 0 0 1 1 1 1 1 1 1 1 1 1 0 0 1 1 2 2
5 3 3 4 3 4 5 6 9 10 10 10 9 9 10 10 9 9 10 10 9 8 7 7 6 5 4 2 2 1 1 0 0 1 1 2 1 1 1 0 0 1 1 1 1 1 1 1 1
3 4 3 3 2 3 4 3 7 9 13 13 13 12 11 9 8 9 9 9 9 9 8 8 7 6 5 3 2 2 2 1 1 0 0 1 1 1 1 1 0 0 1 1 1 1 1 1 1
1 4 5 4 3 4 5 2 3 5 6 8 11 11 11 13 12 11 10 10 9 9 9 9 8 6 5 4 2 1 1 1 1 1 0 1 1 1 1 1 1 1 1 1 2 2 2 2 1
4 5 5 5 5 0 3 2 7 5 5 8 10 10 11 12 11 11 11 11 11 10 9 8 8 7 5 5 4 3 2 2 2 1 1 1 1 1 1 1 1 1 1 1 2 1 2 2 1
5 4 2 4 4 2 1 3 7 2 6 9 10 12 12 12 13 13 13 12 11 10 9 8 7 6 5 5 5 4 3 2 1 1 1 0 1 1 1 0 1 1 1 1 1 1 1 1 2
3 5 7 6 5 1 4 4 6 6 10 9 9 11 11 12 13 12 10 9 8 8 8 8 7 6 5 5 5 5 4 3 2 1 1 0 1 2 1 0 0 1 1 1 1 1 0 1 1
5 7 5 5 4 4 3 3 8 9 9 10 11 11 11 11 11 10 10 10 9 9 9 8 8 6 5 5 5 4 4 4 3 2 2 1 0 1 1 1 0 1 1 1 1 1 1 0 1
4 10 9 6 4 4 1 4 8 7 6 5 7 8 9 10 10 11 12 11 10 10 10 9 8 7 6 6 5 4 4 3 2 2 2 1 1 0 1 1 1 1 1 1 1 1 1 1 1
5 4 8 8 3 0 3 4 6 3 2 5 6 7 9 10 11 11 11 10 10 10 9 10 9 7 6 6 5 4 3 3 3 2 2 1 0 1 1 2 2 2 2 2 1 2 1 1 2
7 7 6 6 5 2 2 3 4 3 3 4 7 9 8 9 9 10 9 9 9 8 8 8 8 7 6 6 5 4 3 3 3 3 2 2 1 2 2 2 2 2 2 2 2 2 2 3 2
3 3 5 5 6 7 3 6 7 8 7 7 7 8 9 9 10 10 9 9 8 7 8 8 7 6 6 5 4 4 3 3 3 3 2 2 2 2 2 2 2 3 3 3 3 3 3 4 3
6 6 7 5 3 4 5 7 6 7 7 8 8 8 8 9 9 9 9 9 8 8 8 7 7 7 6 6 5 5 4 4 4 3 2 3 3 2 2 3 3 3 4 3 3 4 4 4 4
Wind_Direction
186 187 174 90 57 61 82 87 93 84 67 63 74 78 78 67 96 121 146 131 128 123 115 110 108 106 104 101 98 96 94 94 92 92 92 92 95 94 95 97 100 102 105 105 105 106 106 107 107
183 175 122 54 79 84 84 97 90 96 115 106 85 83 79 75 89 112 128 135 129 124 118 115 113 110 107 105 103 101 99 98 97 96 96 96 98 97 97 99 102 104 106 108 108 108 107 107 107
190 179 86 69 98 121 117 110 107 108 109 99 94 71 71 101 110 119 138 137 124 118 118 123 117 114 112 110 108 106 104 102 101 99 99 100 101 101 101 103 106 106 108 109 109 108 109 109 109
143 69 53 79 113 130 127 127 119 110 87 79 93 77 71 106 115 131 137 134 126 122 123 127 122 119 117 115 114 111 109 107 105 104 102 102 103 105 106 106 108 108 109 110 110 110 110 110 109
72 72 60 85 109 113 121 125 120 110 97 97 99 100 87 93 121 133 136 134 132 131 130 130 126 124 121 119 117 116 114 113 111 109 107 106 106 108 110 111 112 112 112 113 114 115 114 113 113
69 76 82 99 107 107 116 118 109 105 113 112 110 108 108 130 133 139 139 137 137 138 135 133 132 129 126 125 123 121 119 118 116 113 113 113 112 112 114 115 117 118 119 119 119 119 120 119 116
116 99 116 122 111 118 129 126 122 127 131 130 128 108 125 144 144 140 139 136 137 138 137 133 135 132 134 134 132 130 127 124 124 122 121 121 120 119 120 121 122 124 126 127 127 127 125 123 122
144 101 87 114 119 129 136 120 131 134 125 132 132 126 149 158 144 136 133 135 137 140 146 145 141 137 136 139 144 142 140 138 137 137 134 130 126 126 129 130 133 135 139 141 142 142 143 140 142
105 88 123 147 132 133 126 114 114 110 125 141 116 127 146 143 136 131 130 131 144 150 159 158 157 156 155 158 156 152 152 154 157 155 154 140 108 111 133 149 148 149 152 156 162 167 175 178 188
105 122 173 172 146 139 132 129 125 107 108 105 109 120 134 136 137 141 147 152 159 165 175 172 172 173 174 171 151 162 170 168 176 177 167 143 154 188 174 179 178 172 172 180 194 212 227 220 235
113 135 146 134 137 134 129 125 113 119 127 142 142 145 143 140 143 147 154 158 164 167 170 170 173 173 174 167 159 176 181 178 189 189 177 173 172 195 201 185 195 197 200 212 230 242 243 234 231
98 114 119 116 115 126 130 124 114 130 152 153 147 147 145 145 148 152 154 158 159 157 162 164 161 159 164 157 165 171 180 187 191 194 178 162 161 184 190 199 205 201 205 214 229 232 233 238 239
97 97 88 94 100 110 113 121 119 128 139 144 144 145 146 149 151 155 152 151 148 148 152 156 152 149 147 144 168 159 174 182 185 179 180 171 164 173 184 205 205 208 204 206 219 222 229 238 242
130 107 100 99 99 106 113 118 111 141 144 147 150 154 155 156 157 151 148 149 150 152 154 153 148 150 144 144 155 154 164 167 164 171 174 166 165 172 175 189 201 206 199 200 205 208 211 227 233
88 87 63 91 102 116 103 95 135 153 152 155 159 160 160 161 162 163 164 161 158 158 158 158 156 150 142 144 151 147 168 156 155 174 171 162 168 172 169 176 206 217 204 194 199 213 210 231 233
51 70 66 284 127 138 107 144 163 157 155 159 164 164 165 167 170 169 167 162 160 156 158 165 158 146 145 146 143 138 160 158 164 165 166 170 180 177 166 182 225 229 197 180 195 206 200 241 238
32 93 189 281 186 132 110 159 174 167 157 163 168 168 167 168 171 173 174 168 162 159 157 158 149 154 160 159 156 151 168 177 177 153 158 183 182 172 169 198 233 202 152 176 206 183 191 219 239
198 164 211 214 209 125 126 165 170 172 162 166 169 171 171 173 179 177 173 169 162 160 158 156 151 160 162 155 145 122 96 239 157 155 172 175 185 180 166 195 213 165 137 161 192 210 224 218 227
179 164 229 235 188 120 141 160 180 177 167 171 174 177 180 185 181 171 170 169 162 159 160 160 155 166 160 148 154 160 191 208 168 172 175 178 185 185 159 184 174 177 174 218 215 214 237 250 197
159 159 210 258 186 136 144 164 190 187 184 182 181 182 182 182 175 175 173 170 169 171 170 165 163 172 174 171 172 167 165 173 169 173 194 211 209 200 173 174 202 224 205 251 247 212 204 249 183
235 178 186 176 61 56 99 6 236 216 195 190 187 182 179 181 180 180 179 180 173 176 176 175 174 175 179 171 144 120 77 48 43 35 294 278 228 222 221 203 194 227 210 237 254 219 196 223 253
248 220 182 151 110 213 133 194 260 217 208 199 194 187 186 185 181 182 184 183 182 186 180 174 175 176 176 163 154 155 155 168 192 200 223 286 258 238 244 212 209 221 224 248 261 230 202 184 226
221 216 164 127 117 98 26 145 266 210 215 210 197 192 188 186 184 185 187 185 185 180 175 174 170 172 170 163 165 160 160 168 162 148 114 341 324 309 292 277 266 259 247 250 275 292 207 184 197
165 61 37 46 72 65 227 164 257 221 211 210 202 197 190 188 186 186 183 172 171 170 169 168 167 172 169 163 161 161 160 154 140 128 124 354 323 314 331 7 296 284 290 272 267 288 257 214 211
103 90 42 8 13 251 240 170 243 235 213 197 194 196 189 185 179 176 171 169 170 168 170 168 166 169 166 162 163 166 164 156 155 157 154 149 307 329 327 339 316 304 307 321 343 21 355 277 240
177 139 152 177 212 270 301 219 256 250 213 182 176 180 177 178 178 177 176 173 171 170 170 166 166 167 165 166 168 165 158 153 157 157 155 167 191 250 337 26 25 10 5 6 20 31 8 39 33
156 178 164 136 153 153 285 285 319 1 109 141 159 161 172 176 174 173 171 170 170 168 170 167 163 162 163 164 158 155 154 151 149 146 138 136 122 91 53 54 44 22 20 19 40 40 24 40 45
161 157 102 117 143 191 273 257 229 231 189 162 166 170 168 167 163 164 164 168 170 169 162 153 156 161 160 160 163 155 151 148 140 125 116 101 81 67 68 58 51 41 34 35 49 46 31 51 42
143 118 114 123 149 151 190 259 223 199 190 180 185 174 162 163 162 161 164 163 157 149 146 147 150 148 149 151 144 137 133 131 123 116 112 105 83 77 77 72 66 55 43 40 49 51 47 54 43
169 169 142 142 198 155 156 255 241 198 188 175 177 170 160 159 156 155 155 149 146 146 146 148 148 147 150 146 136 134 126 120 118 114 104 94 85 75 77 75 68 63 55 46 55 60 53 57 51